TimeMST,TemperatureF,Dew PointF,Humidity,Sea Level PressureIn,VisibilityMPH,Wind Direction,Wind SpeedMPH,Gust SpeedMPH,PrecipitationIn,Events,Conditions,WindDirDegrees,DateUTC
12:15 AM,42.8,14.9,32,30.09,10.0,West,18.4,24.2,N/A,,Clear,270,2012-12-06 07:15:00
12:35 AM,42.1,15.6,34,30.08,10.0,West,16.1,23.0,N/A,,Clear,260,2012-12-06 07:35:00
12:55 AM,41.9,15.6,35,30.08,10.0,West,13.8,-,N/A,,Clear,260,2012-12-06 07:55:00
1:15 AM,41.7,14.9,34,30.08,10.0,West,16.1,20.7,N/A,,Clear,260,2012-12-06 08:15:00
1:35 AM,41.5,15.3,35,30.08,10.0,West,16.1,20.7,N/A,,Clear,270,2012-12-06 08:35:00
1:55 AM,42.3,14.2,32,30.08,10.0,West,16.1,24.2,N/A,,Clear,260,2012-12-06 08:55:00
2:15 AM,41.2,13.5,32,30.08,10.0,West,11.5,17.3,N/A,,Clear,260,2012-12-06 09:15:00
2:35 AM,41.9,12.4,30,30.08,10.0,West,8.1,-,N/A,,Clear,270,2012-12-06 09:35:00
2:55 AM,40.6,13.1,33,30.08,10.0,WNW,6.9,-,N/A,,Clear,300,2012-12-06 09:55:00
6:35 AM,25.9,13.5,59,30.07,10.0,Calm,Calm,-,N/A,,Clear,0,2012-12-06 13:35:00
7:55 AM,38.8,14.9,38,30.07,10.0,South,5.8,-,N/A,,Clear,170,2012-12-06 14:55:00
8:15 AM,41.4,14.4,33,30.08,10.0,SSE,4.6,-,N/A,,Clear,150,2012-12-06 15:15:00
8:35 AM,38.1,15.8,40,30.09,10.0,SSE,5.8,-,N/A,,Clear,150,2012-12-06 15:35:00
8:55 AM,37.2,15.8,42,30.09,10.0,South,3.5,-,N/A,,Clear,190,2012-12-06 15:55:00
9:15 AM,39.6,15.8,38,30.09,10.0,Calm,Calm,-,N/A,,Clear,0,2012-12-06 16:15:00
9:35 AM,42.6,15.8,34,30.10,10.0,Calm,Calm,-,N/A,,Clear,0,2012-12-06 16:35:00
9:55 AM,45.3,16.0,31,30.10,10.0,SSE,3.5,-,N/A,,Clear,160,2012-12-06 16:55:00
10:15 AM,46.8,17.1,31,30.09,10.0,SE,4.6,-,N/A,,Clear,140,2012-12-06 17:15:00
11:15 AM,50.4,20.5,31,30.05,10.0,WSW,10.4,-,N/A,,Clear,250,2012-12-06 18:15:00
11:35 AM,49.5,20.5,32,30.04,10.0,WSW,13.8,17.3,N/A,,Clear,240,2012-12-06 18:35:00
11:55 AM,50.4,21.4,32,30.03,10.0,SW,18.4,27.6,N/A,,Clear,230,2012-12-06 18:55:00
12:35 PM,49.8,21.4,33,30.02,10.0,WSW,15.0,24.2,N/A,,Clear,240,2012-12-06 19:35:00
12:55 PM,50.4,21.4,32,30.02,10.0,West,17.3,21.9,N/A,,Clear,260,2012-12-06 19:55:00
1:15 PM,50.0,20.5,31,30.01,10.0,WSW,17.3,24.2,N/A,,Clear,240,2012-12-06 20:15:00
1:35 PM,50.2,19.8,30,30.00,10.0,West,15.0,21.9,N/A,,Clear,260,2012-12-06 20:35:00
1:55 PM,49.6,19.9,31,29.99,10.0,West,15.0,24.2,N/A,,Clear,280,2012-12-06 20:55:00
2:15 PM,48.6,19.0,31,29.99,10.0,West,17.3,23.0,N/A,,Clear,270,2012-12-06 21:15:00
2:35 PM,47.3,18.9,32,30.00,10.0,West,16.1,-,N/A,,Clear,270,2012-12-06 21:35:00
2:55 PM,47.7,18.9,32,30.00,10.0,West,12.7,-,N/A,,Clear,270,2012-12-06 21:55:00
3:35 PM,45.3,18.1,34,30.00,10.0,WSW,5.8,-,N/A,,Clear,250,2012-12-06 22:35:00
4:55 PM,40.8,17.4,39,30.00,10.0,SSW,8.1,-,N/A,,Clear,210,2012-12-06 23:55:00
5:15 PM,40.3,17.8,40,29.99,10.0,SSW,9.2,-,N/A,,Clear,210,2012-12-07 00:15:00
5:35 PM,39.7,18.3,42,29.99,10.0,SSW,8.1,-,N/A,,Clear,210,2012-12-07 00:35:00
5:55 PM,36.0,18.0,48,30.00,10.0,SW,5.8,-,N/A,,Clear,220,2012-12-07 00:55:00
6:35 PM,41.4,19.6,42,30.00,10.0,SW,5.8,-,N/A,,Clear,230,2012-12-07 01:35:00
7:35 PM,42.4,21.9,44,30.01,10.0,WSW,9.2,19.6,N/A,,Scattered Clouds,250,2012-12-07 02:35:00
7:55 PM,42.4,22.1,44,30.01,10.0,WSW,8.1,20.7,N/A,,Scattered Clouds,240,2012-12-07 02:55:00
8:15 PM,41.9,22.6,46,30.01,10.0,WSW,11.5,18.4,N/A,,Scattered Clouds,250,2012-12-07 03:15:00
8:35 PM,41.0,22.5,48,30.01,10.0,WSW,6.9,-,N/A,,Scattered Clouds,240,2012-12-07 03:35:00
8:55 PM,40.5,22.5,49,30.01,10.0,SW,4.6,-,N/A,,Mostly Cloudy,230,2012-12-07 03:55:00
9:15 PM,40.6,22.5,48,30.01,10.0,WSW,4.6,-,N/A,,Mostly Cloudy,250,2012-12-07 04:15:00
9:35 PM,40.1,22.5,49,30.01,10.0,WSW,6.9,-,N/A,,Scattered Clouds,240,2012-12-07 04:35:00
9:55 PM,40.8,22.1,47,30.01,10.0,WSW,9.2,-,N/A,,Scattered Clouds,240,2012-12-07 04:55:00
10:15 PM,40.3,22.1,48,30.01,10.0,WSW,6.9,-,N/A,,Scattered Clouds,250,2012-12-07 05:15:00
10:35 PM,40.1,22.8,50,30.02,10.0,WSW,9.2,-,N/A,,Overcast,240,2012-12-07 05:35:00
10:55 PM,39.6,22.8,51,30.01,10.0,South,6.9,-,N/A,,Mostly Cloudy,190,2012-12-07 05:55:00
11:15 PM,38.1,23.0,55,30.00,10.0,SSW,4.6,-,N/A,,Scattered Clouds,200,2012-12-07 06:15:00
11:35 PM,38.1,22.8,54,30.00,10.0,SSW,3.5,-,N/A,,Clear,200,2012-12-07 06:35:00
11:55 PM,37.0,22.8,56,30.00,10.0,WSW,3.5,-,N/A,,Mostly Cloudy,250,2012-12-07 06:55:00